Location: Dötzum
(52.0808°N, 9.8063°E)
Time: 04:52:22
(UTC+00:00)

Cosmos 2333 Rocket - Pass Details

Date: 27 May 2022
Orbit: 839 x 863 km, 70.8° (Epoch: 24 June)

Event Time Altitude Azimuth Distance (km) Brightness Sun altitude
Exits shadow 00:07:15 10° 242° (WSW) 2,483 4.3 -15.9°
Reaches altitude 10° 00:07:19 10° 243° (WSW) 2,459 4.3 -15.9°
Maximum altitude 00:12:38 41° 313° (NW) 1,213 3.3 -15.7°
Drops below altitude 10° 00:18:01 10° 23° (NNE) 2,484 6.0 -15.5°
Sets 00:20:38 0° 31° (NNE) 3,426 6.9 -15.4°
